Location: Erdweis
(48.5167°N, 15.3500°E)
Time: 01:59:11
(UTC+00:00)

Cosmos 2034 Rocket - Pass Details

Date: 18 September 2020
Orbit: 957 x 1002 km, 82.9° (Epoch: 31 October)

Event Time Altitude Azimuth Distance (km) Brightness Sun altitude
Rises 18:54:01 0° 186° (S) 3,712 6.9 -18.4°
Reaches altitude 10° 18:56:32 10° 186° (S) 2,767 6.2 -18.8°
Maximum altitude 19:02:55 88° 98° (E) 1,007 4.0 -19.7°
Drops below altitude 10° 19:09:19 10° 10° (N) 2,770 6.6 -20.7°
Sets 19:11:50 0° 10° (N) 3,718 7.3 -21.1°
